TimeMST,TemperatureF,Dew PointF,Humidity,Sea Level PressureIn,VisibilityMPH,Wind Direction,Wind SpeedMPH,Gust SpeedMPH,PrecipitationIn,Events,Conditions,WindDirDegrees,DateUTC
12:15 AM,21.2,12.2,68,30.17,10.0,SSE,3.5,-,N/A,,Clear,160,2012-12-29 07:15:00
12:35 AM,23.0,14.0,68,30.16,10.0,South,8.1,-,N/A,,Clear,180,2012-12-29 07:35:00
12:55 AM,23.0,14.0,68,30.17,10.0,South,8.1,-,N/A,,Clear,190,2012-12-29 07:55:00
1:15 AM,24.8,17.6,74,30.17,10.0,South,8.1,-,N/A,,Clear,190,2012-12-29 08:15:00
1:35 AM,24.8,17.6,74,30.18,10.0,South,6.9,-,N/A,,Clear,180,2012-12-29 08:35:00
1:55 AM,24.8,17.6,74,30.18,10.0,South,6.9,-,N/A,,Clear,170,2012-12-29 08:55:00
2:15 AM,28.4,19.4,69,30.18,10.0,SSE,8.1,-,N/A,,Clear,160,2012-12-29 09:15:00
2:35 AM,30.2,19.4,64,30.18,10.0,SSE,10.4,-,N/A,,Clear,160,2012-12-29 09:35:00
2:55 AM,30.2,19.4,64,30.19,10.0,SSE,12.7,-,N/A,,Clear,160,2012-12-29 09:55:00
3:15 AM,30.2,19.4,64,30.19,10.0,SSE,12.7,-,N/A,,Clear,150,2012-12-29 10:15:00
3:35 AM,30.2,19.4,64,30.18,10.0,SSE,15.0,-,N/A,,Clear,150,2012-12-29 10:35:00
3:55 AM,32.0,17.6,55,30.18,10.0,SSE,16.1,-,N/A,,Clear,160,2012-12-29 10:55:00
4:15 AM,30.2,17.6,60,30.18,10.0,SSE,16.1,-,N/A,,Clear,150,2012-12-29 11:15:00
4:35 AM,28.4,17.6,64,30.18,10.0,SSE,16.1,21.9,N/A,,Clear,150,2012-12-29 11:35:00
4:55 AM,28.4,17.6,64,30.18,10.0,SSE,15.0,20.7,N/A,,Clear,150,2012-12-29 11:55:00
5:15 AM,28.4,15.8,59,30.18,10.0,SSE,15.0,19.6,N/A,,Clear,150,2012-12-29 12:15:00
5:35 AM,28.4,15.8,59,30.19,10.0,SSE,16.1,21.9,N/A,,Clear,160,2012-12-29 12:35:00
5:55 AM,28.4,14.0,55,30.19,10.0,SSE,17.3,-,N/A,,Clear,150,2012-12-29 12:55:00
6:15 AM,28.4,14.0,55,30.20,10.0,SSE,16.1,21.9,N/A,,Clear,150,2012-12-29 13:15:00
6:35 AM,28.4,14.0,55,30.20,10.0,SSE,17.3,23.0,N/A,,Clear,150,2012-12-29 13:35:00
6:55 AM,28.4,14.0,55,30.20,10.0,SSE,19.6,24.2,N/A,,Clear,150,2012-12-29 13:55:00
7:15 AM,28.4,14.0,55,30.20,10.0,SSE,19.6,25.3,N/A,,Clear,150,2012-12-29 14:15:00
7:35 AM,28.4,14.0,55,30.21,10.0,SSE,18.4,25.3,N/A,,Clear,150,2012-12-29 14:35:00
7:55 AM,28.4,14.0,55,30.21,10.0,SSE,18.4,25.3,N/A,,Clear,150,2012-12-29 14:55:00
8:15 AM,30.2,14.0,51,30.21,10.0,SE,20.7,25.3,N/A,,Clear,140,2012-12-29 15:15:00
8:35 AM,30.2,14.0,51,30.21,10.0,SE,18.4,26.5,N/A,,Clear,140,2012-12-29 15:35:00
8:55 AM,32.0,15.8,51,30.22,10.0,SSE,18.4,24.2,N/A,,Clear,150,2012-12-29 15:55:00
9:15 AM,33.8,15.8,48,30.22,10.0,SE,16.1,23.0,N/A,,Clear,140,2012-12-29 16:15:00
9:35 AM,37.4,17.6,45,30.23,10.0,ESE,25.3,31.1,N/A,,Clear,120,2012-12-29 16:35:00
9:55 AM,42.8,17.6,36,30.23,10.0,ESE,29.9,35.7,N/A,,Clear,120,2012-12-29 16:55:00
10:15 AM,42.8,17.6,36,30.23,10.0,ESE,25.3,35.7,N/A,,Clear,120,2012-12-29 17:15:00
10:35 AM,42.8,17.6,36,30.23,10.0,ESE,25.3,35.7,N/A,,Clear,120,2012-12-29 17:35:00
10:55 AM,44.6,17.6,34,30.22,10.0,ESE,27.6,36.8,N/A,,Clear,120,2012-12-29 17:55:00
11:15 AM,44.6,17.6,34,30.21,10.0,ESE,24.2,31.1,N/A,,Clear,120,2012-12-29 18:15:00
11:35 AM,44.6,17.6,34,30.20,10.0,ESE,26.5,33.4,N/A,,Clear,120,2012-12-29 18:35:00
11:55 AM,46.4,17.6,32,30.18,10.0,ESE,25.3,34.5,N/A,,Clear,120,2012-12-29 18:55:00
12:15 PM,46.4,17.6,32,30.16,10.0,ESE,26.5,36.8,N/A,,Clear,120,2012-12-29 19:15:00
12:35 PM,46.4,15.8,29,30.15,10.0,ESE,24.2,32.2,N/A,,Clear,120,2012-12-29 19:35:00
12:55 PM,46.4,15.8,29,30.14,10.0,ESE,24.2,32.2,N/A,,Clear,120,2012-12-29 19:55:00
1:15 PM,50.0,15.8,26,30.12,10.0,ESE,23.0,35.7,N/A,,Clear,120,2012-12-29 20:15:00
1:35 PM,50.0,15.8,26,30.11,10.0,ESE,21.9,33.4,N/A,,Clear,120,2012-12-29 20:35:00
1:55 PM,50.0,15.8,26,30.10,10.0,ESE,25.3,35.7,N/A,,Clear,120,2012-12-29 20:55:00
2:15 PM,50.0,15.8,26,30.09,10.0,ESE,21.9,31.1,N/A,,Clear,120,2012-12-29 21:15:00
2:35 PM,50.0,15.8,26,30.09,10.0,ESE,21.9,29.9,N/A,,Clear,120,2012-12-29 21:35:00
2:55 PM,50.0,15.8,26,30.08,10.0,ESE,27.6,33.4,N/A,,Clear,110,2012-12-29 21:55:00
3:15 PM,50.0,14.0,24,30.09,10.0,ESE,24.2,29.9,N/A,,Clear,120,2012-12-29 22:15:00
3:35 PM,50.0,14.0,24,30.08,10.0,ESE,21.9,27.6,N/A,,Clear,120,2012-12-29 22:35:00
4:15 PM,50.0,14.0,24,30.08,10.0,ESE,19.6,29.9,N/A,,Clear,120,2012-12-29 23:15:00
4:35 PM,50.0,14.0,24,30.08,10.0,ESE,18.4,29.9,N/A,,Clear,120,2012-12-29 23:35:00
4:55 PM,46.4,14.0,27,30.08,10.0,SE,15.0,23.0,N/A,,Clear,130,2012-12-29 23:55:00
5:15 PM,46.4,14.0,27,30.08,10.0,ESE,18.4,24.2,N/A,,Clear,120,2012-12-30 00:15:00
5:35 PM,44.6,14.0,29,30.07,10.0,ESE,16.1,23.0,N/A,,Clear,120,2012-12-30 00:35:00
5:55 PM,42.8,14.0,31,30.08,10.0,ESE,15.0,-,N/A,,Clear,120,2012-12-30 00:55:00
6:15 PM,42.8,14.0,31,30.08,10.0,ESE,15.0,-,N/A,,Clear,120,2012-12-30 01:15:00
6:35 PM,42.8,14.0,31,30.08,10.0,ESE,13.8,20.7,N/A,,Clear,120,2012-12-30 01:35:00
6:55 PM,41.0,14.0,33,30.08,10.0,SE,12.7,-,N/A,,Clear,130,2012-12-30 01:55:00
7:15 PM,39.2,14.0,36,30.08,10.0,SE,10.4,-,N/A,,Clear,140,2012-12-30 02:15:00
7:35 PM,39.2,14.0,36,30.07,10.0,SE,10.4,-,N/A,,Clear,140,2012-12-30 02:35:00
7:55 PM,39.2,14.0,36,30.07,10.0,SE,6.9,-,N/A,,Clear,130,2012-12-30 02:55:00
8:15 PM,41.0,14.0,33,30.07,10.0,SE,9.2,-,N/A,,Clear,130,2012-12-30 03:15:00
8:35 PM,42.8,14.0,31,30.07,10.0,SE,15.0,-,N/A,,Clear,130,2012-12-30 03:35:00
8:55 PM,39.2,14.0,36,30.07,10.0,SE,11.5,-,N/A,,Clear,140,2012-12-30 03:55:00
9:15 PM,41.0,14.0,33,30.07,10.0,SE,13.8,-,N/A,,Clear,140,2012-12-30 04:15:00
9:35 PM,41.0,14.0,33,30.07,10.0,SE,13.8,-,N/A,,Clear,140,2012-12-30 04:35:00
9:55 PM,41.0,14.0,33,30.06,10.0,SSE,12.7,-,N/A,,Clear,150,2012-12-30 04:55:00
10:15 PM,41.0,14.0,33,30.06,10.0,SE,13.8,-,N/A,,Clear,140,2012-12-30 05:15:00
10:35 PM,42.8,14.0,31,30.05,10.0,SE,13.8,-,N/A,,Clear,140,2012-12-30 05:35:00
10:55 PM,42.8,14.0,31,30.05,10.0,SE,12.7,-,N/A,,Clear,140,2012-12-30 05:55:00
11:15 PM,41.0,14.0,33,30.06,10.0,SSE,13.8,-,N/A,,Clear,150,2012-12-30 06:15:00
11:35 PM,39.2,14.0,36,30.04,10.0,SSE,13.8,-,N/A,,Clear,150,2012-12-30 06:35:00
11:55 PM,41.0,14.0,33,30.04,10.0,SE,15.0,-,N/A,,Clear,140,2012-12-30 06:55:00